Weather History for Carroll, IA

Change the Weather History Date:

Monday, November 19, 2012

  Actual Average Record
Temperature  
Mean Temperature 48 °F -  
Max Temperature 60 °F 45 °F 66 °F (1949)
Min Temperature 37 °F 25 °F 7 °F (1978)
Degree Days  
Heating Degree Days 16    
Moisture  
Dew Point 38 °F    
Average Humidity 69    
Maximum Humidity 87    
Minimum Humidity 45    
Precipitation  
Precipitation 0.00 in - - ()
Sea Level Pressure  
Sea Level Pressure 30.04 in    
Wind  
Wind Speed 11 mph (SW)    
Max Wind Speed 18 mph    
Max Gust Speed 25 mph    
Visibility 10 miles    
Events Rain    
Averages and records for this station are not official NWS values.
T = Trace of Precipitation, MM = Missing Value Source: NWS Daily Summary

Daily Weather History Graph

Daily Weather History Graph

Search for Another Location

Airport:

Trip Planner

Search our weather history database for the weather conditions in past years. The results will help you decide how hot, cold, wet, or windy it might be!

Date:

Astronomy

Nov. 19, 2012 Rise Set
Actual Time 7:14 AM CST 4:54 PM CST
Civil Twilight 6:44 AM CST 5:24 PM CST
Nautical Twilight 6:10 AM CST 5:58 PM CST
Astronomical Twilight 5:36 AM CST 6:31 PM CST
Moon 12:15 PM CST (11/19) 11:25 PM CST (11/19)
Length of Visible Light 10h 40m
Length of Day
9h 39m
Waxing Crescent, 41% of the Moon is Illuminated
Nov 19
Waxing Crescent
Nov 20
First Quarter
Nov 28
Full
Dec 6
Last Quarter
Dec 13
New

Hourly Weather History & Observations

Time (CST) Temp. Windchill Dew Point Humidity Pressure Visibility Wind Dir Wind Speed Gust Speed Precip Events Conditions
12:15 AM 50.0 °F - 41.0 °F 71% 30.07 in 10.0 mi South 15.0 mph 20.7 mph N/A   Overcast
12:35 AM 50.0 °F - 41.0 °F 71% 30.07 in 10.0 mi South 16.1 mph 24.2 mph N/A Rain Light Rain
12:55 AM 50.0 °F - 41.0 °F 71% 30.06 in 10.0 mi SSE 10.4 mph - N/A   Overcast
1:15 AM 50.0 °F - 39.2 °F 66% 30.06 in 10.0 mi SSE 10.4 mph - N/A   Overcast
1:35 AM 50.0 °F - 39.2 °F 66% 30.05 in 10.0 mi SSE 8.1 mph - N/A   Overcast
1:55 AM 50.0 °F - 39.2 °F 66% 30.05 in 10.0 mi SE 9.2 mph 18.4 mph N/A   Overcast
2:15 AM 48.2 °F - 39.2 °F 71% 30.05 in 10.0 mi SSE 8.1 mph - N/A   Overcast
2:35 AM 46.4 °F 42.9 °F 37.4 °F 71% 30.06 in 10.0 mi SSE 6.9 mph - N/A   Overcast
2:55 AM 44.6 °F 40.7 °F 37.4 °F 76% 30.06 in 10.0 mi SSE 6.9 mph - N/A   Partly Cloudy
3:15 AM 42.8 °F 37.0 °F 37.4 °F 81% 30.05 in 10.0 mi SSE 10.4 mph - N/A   Clear
3:35 AM 42.8 °F 38.6 °F 37.4 °F 81% 30.05 in 10.0 mi SSE 6.9 mph - N/A   Clear
3:55 AM 41.0 °F 36.4 °F 35.6 °F 81% 30.04 in 10.0 mi SSE 6.9 mph - N/A   Clear
4:15 AM 41.0 °F 38.0 °F 35.6 °F 81% 30.04 in 10.0 mi SSE 4.6 mph - N/A   Clear
4:35 AM 39.2 °F 33.6 °F 35.6 °F 87% 30.04 in 10.0 mi South 8.1 mph - N/A   Clear
4:55 AM 42.8 °F 37.5 °F 35.6 °F 76% 30.03 in 10.0 mi South 9.2 mph - N/A   Clear
5:15 AM 42.8 °F 37.5 °F 35.6 °F 76% 30.03 in 10.0 mi South 9.2 mph - N/A   Clear
5:35 AM 41.0 °F 37.1 °F 33.8 °F 76% 30.04 in 10.0 mi SSE 5.8 mph - N/A   Clear
5:55 AM 37.4 °F 34.9 °F 33.8 °F 87% 30.03 in 10.0 mi SE 3.5 mph - N/A   Clear
6:15 AM 39.2 °F 35.0 °F 33.8 °F 81% 30.03 in 10.0 mi South 5.8 mph - N/A   Clear
6:35 AM 42.8 °F 37.5 °F 35.6 °F 76% 30.02 in 10.0 mi South 9.2 mph - N/A   Clear
6:55 AM 42.8 °F 37.5 °F 35.6 °F 76% 30.02 in 10.0 mi South 9.2 mph - N/A   Clear
7:35 AM 42.8 °F 38.0 °F 35.6 °F 76% 30.02 in 10.0 mi South 8.1 mph - N/A   Clear
7:55 AM 44.6 °F 40.2 °F 35.6 °F 71% 30.03 in 10.0 mi South 8.1 mph - N/A   Clear
8:15 AM 46.4 °F 41.5 °F 37.4 °F 71% 30.03 in 10.0 mi South 10.4 mph - N/A   Clear
8:35 AM 48.2 °F - 39.2 °F 71% 30.02 in 10.0 mi South 15.0 mph - N/A   Clear
8:55 AM 48.2 °F - 39.2 °F 71% 30.02 in 10.0 mi South 16.1 mph - N/A   Clear
9:15 AM 50.0 °F - 39.2 °F 66% 30.02 in 10.0 mi SSW 18.4 mph 25.3 mph N/A   Clear
9:35 AM 51.8 °F - 41.0 °F 67% 30.02 in 10.0 mi SSW 16.1 mph - N/A   Clear
9:55 AM 51.8 °F - 41.0 °F 67% 30.02 in 10.0 mi SSW 18.4 mph - N/A   Clear
10:15 AM 53.6 °F - 41.0 °F 62% 30.03 in 10.0 mi SSW 17.3 mph 23.0 mph N/A   Clear
10:35 AM 53.6 °F - 42.8 °F 67% 30.02 in 10.0 mi SSW 15.0 mph 20.7 mph N/A   Clear
10:55 AM 55.4 °F - 42.8 °F 63% 30.03 in 10.0 mi SSW 13.8 mph 19.6 mph N/A   Clear
11:15 AM 55.4 °F - 42.8 °F 63% 30.02 in 10.0 mi SW 11.5 mph 19.6 mph N/A   Clear
11:35 AM 57.2 °F - 42.8 °F 59% 30.01 in 10.0 mi SSW 15.0 mph 20.7 mph N/A   Clear
11:55 AM 57.2 °F - 42.8 °F 59% 30.01 in 10.0 mi SSW 12.7 mph 19.6 mph N/A   Clear
12:15 PM 59.0 °F - 42.8 °F 55% 30.00 in 10.0 mi SW 13.8 mph - N/A   Clear
12:35 PM 59.0 °F - 42.8 °F 55% 30.00 in 10.0 mi SW 12.7 mph 18.4 mph N/A   Clear
12:55 PM 59.0 °F - 42.8 °F 55% 30.01 in 10.0 mi SW 13.8 mph - N/A   Clear
1:15 PM 60.8 °F - 42.8 °F 52% 30.00 in 10.0 mi WSW 12.7 mph 20.7 mph N/A   Clear
1:35 PM 60.8 °F - 42.8 °F 52% 30.00 in 10.0 mi SW 12.7 mph - N/A   Clear
1:55 PM 60.8 °F - 42.8 °F 52% 29.99 in 10.0 mi SW 10.4 mph 16.1 mph N/A   Clear
2:15 PM 60.8 °F - 41.0 °F 48% 29.99 in 10.0 mi WSW 12.7 mph - N/A   Clear
2:35 PM 60.8 °F - 41.0 °F 48% 29.99 in 10.0 mi WSW 10.4 mph - N/A   Clear
2:55 PM 60.8 °F - 41.0 °F 48% 29.99 in 10.0 mi WSW 6.9 mph 15.0 mph N/A   Clear
3:15 PM 60.8 °F - 41.0 °F 48% 30.00 in 10.0 mi West 10.4 mph - N/A   Clear
3:35 PM 60.8 °F - 39.2 °F 45% 30.00 in 10.0 mi West 10.4 mph - N/A   Clear
3:55 PM 59.0 °F - 39.2 °F 48% 30.01 in 10.0 mi West 8.1 mph - N/A   Clear
4:15 PM 59.0 °F - 39.2 °F 48% 30.01 in 10.0 mi West 8.1 mph - N/A   Clear
4:35 PM 55.4 °F - 39.2 °F 54% 30.01 in 10.0 mi West 9.2 mph - N/A   Clear
4:55 PM 53.6 °F - 37.4 °F 54% 30.02 in 10.0 mi West 9.2 mph - N/A   Clear
5:15 PM 50.0 °F - 37.4 °F 62% 30.02 in 10.0 mi West 8.1 mph - N/A   Clear
5:35 PM 48.2 °F - 37.4 °F 66% 30.03 in 10.0 mi West 8.1 mph - N/A   Clear
5:55 PM 46.4 °F 42.4 °F 37.4 °F 71% 30.04 in 10.0 mi West 8.1 mph - N/A   Clear
6:15 PM 44.6 °F 40.2 °F 35.6 °F 71% 30.05 in 10.0 mi WNW 8.1 mph - N/A   Clear
6:35 PM 42.8 °F 38.0 °F 35.6 °F 76% 30.05 in 10.0 mi WNW 8.1 mph - N/A   Clear
6:55 PM 42.8 °F 38.0 °F 35.6 °F 76% 30.05 in 9.0 mi West 8.1 mph - N/A   Clear
7:15 PM 42.8 °F 38.0 °F 35.6 °F 76% 30.05 in 5.0 mi WNW 8.1 mph - N/A   Haze
7:35 PM 42.8 °F 36.6 °F 35.6 °F 76% 30.06 in 10.0 mi West 11.5 mph - N/A   Clear
7:55 PM 42.8 °F 37.5 °F 35.6 °F 76% 30.06 in 10.0 mi West 9.2 mph - N/A   Clear
8:15 PM 42.8 °F 37.0 °F 35.6 °F 76% 30.06 in 10.0 mi WNW 10.4 mph - N/A   Clear
8:35 PM 42.8 °F 37.0 °F 35.6 °F 76% 30.07 in 10.0 mi WNW 10.4 mph - N/A   Clear
8:55 PM 41.0 °F 34.7 °F 35.6 °F 81% 30.07 in 10.0 mi West 10.4 mph - N/A   Clear
9:15 PM 41.0 °F 34.3 °F 35.6 °F 81% 30.07 in 10.0 mi West 11.5 mph - N/A   Clear
9:35 PM 41.0 °F 34.3 °F 35.6 °F 81% 30.07 in 10.0 mi West 11.5 mph - N/A   Clear
9:55 PM 41.0 °F 35.2 °F 35.6 °F 81% 30.07 in 10.0 mi West 9.2 mph - N/A   Clear
10:15 PM 39.2 °F 33.0 °F 35.6 °F 87% 30.07 in 10.0 mi WNW 9.2 mph - N/A   Clear
10:35 PM 39.2 °F 33.0 °F 35.6 °F 87% 30.07 in 10.0 mi West 9.2 mph - N/A   Clear
10:55 PM 39.2 °F 32.5 °F 35.6 °F 87% 30.06 in 10.0 mi West 10.4 mph - N/A   Clear
11:15 PM 41.0 °F 34.7 °F 37.4 °F 87% 30.07 in 10.0 mi WNW 10.4 mph - N/A   Clear
11:35 PM 41.0 °F 35.2 °F 37.4 °F 87% 30.08 in 10.0 mi WNW 9.2 mph - N/A   Clear
11:55 PM 42.8 °F 36.6 °F 37.4 °F 81% 30.08 in 10.0 mi NW 11.5 mph - N/A   Clear